Home > Weather > Vereeniging > Past weeks

Flag for South Africa Weather for the Past 2 Weeks in Vereeniging, South Africa

Now
66 °F

Mild.


Feels Like: 66 °F
Forecast: 62 / 82 °F
Wind: N/A

Location: Vereeniging

Current Time: Feb 8, 2016 at 3:14:18 AM

Latest Report: Feb 8, 2016 at 1:00 AM


Visibility: N/A

Pressure: 30.09 "Hg (25.42 "Hg at 1443m altitude)

Humidity: 73%

Dew point: 57 °F

Location of VereenigingLocation

Historic Weather in Vereeniging — Graph

°F

Vereeniging Temperature Yesterday

Maximum temperature yesterday: 88 °F (at 6:00 PM)
Minimum temperature yesterday: 61 °F (at 5:00 AM)
Average temperature yesterday: 74 °F

High & Low Weather Summary for the Past Weeks

 TemperatureHumidityPressure
High88 °F (Feb 2, 4:00 PM)94% (Jan 24, 3:00 AM)30.30 "Hg (Jan 24, 3:00 AM)
Low59 °F (Jan 26, 5:00 AM)19% (Jan 31, 12:00 PM)29.95 "Hg (Feb 4, 3:00 PM)
Average71 °F59%30.12 "Hg
* Reported Jan 24 1:00 AM — Feb 8 1:00 AM, Vereeniging, Weather by CustomWeather, © 2016

Note: Actual official high and low records may vary slightly from our data, if they occured in-between our weather recording intervals... More about our weather records

Advertising

Vereeniging Weather History for the Previous 24 Hours

 ConditionsComfort  
Time TempWeatherWind HumidityBarometerVisibility
1:00 AM
Mon, Feb 8
66 °FMild.N/A73%30.09 "HgN/A
12:00 AM66 °FMild.N/A78%30.12 "HgN/A
11:00 PM
Sun, Feb 7
70 °FMild.N/A64%30.12 "HgN/A
10:00 PM73 °FMild.N/A57%30.09 "HgN/A
9:00 PM73 °FMild.N/A53%30.04 "HgN/A
8:00 PM73 °FMild.N/A57%30.04 "HgN/A
7:00 PM81 °FPleasantly warm.N/A34%30.01 "HgN/A
6:00 PM88 °FPleasantly warm.N/A25%29.98 "HgN/A
5:00 PM86 °FPleasantly warm.N/A31%30.01 "HgN/A
4:00 PM86 °FPleasantly warm.N/A33%30.01 "HgN/A
3:00 PM84 °FPleasantly warm.N/A35%30.04 "HgN/A
2:00 PM84 °FPleasantly warm.N/A37%30.04 "HgN/A
1:00 PM86 °FPleasantly warm.N/A31%30.07 "HgN/A
12:00 PM82 °FWarm.N/A45%30.09 "HgN/A
11:00 AM81 °FWarm.N/A45%30.09 "HgN/A
10:00 AM79 °FWarm.N/A48%30.09 "HgN/A
9:00 AM73 °FMild.N/A61%30.09 "HgN/A
8:00 AM70 °FMild.N/A64%30.09 "HgN/A
7:00 AM64 °FMild.N/A83%30.09 "HgN/A
6:00 AM61 °FCool.N/A88%30.07 "HgN/A
5:00 AM61 °FCool.N/A88%30.07 "HgN/A
4:00 AM63 °FMild.N/A83%30.04 "HgN/A
3:00 AM63 °FMild.N/A83%30.04 "HgN/A
Weather by CustomWeather, © 2016

See weather overviewHow to use our weather pages